Location: Lafig�re
(44.4503°N, 4.0357°E)
Time: 10:50:46
(UTC+00:00)

Vanguard 2 - Pass Details

Date: 22 January 2021
Orbit: 552 x 2938 km, 32.9° (Epoch: 05 March)

Event Time Altitude Azimuth Distance (km) Brightness Sun altitude
Rises 18:12:59 0° 241° (WSW) 2,815 11.9 -16.5°
Reaches altitude 10° 18:15:20 10° 226° (SW) 2,040 10.6 -17.0°
Maximum altitude 18:19:03 24° 172° (S) 1,563 9.1 -17.6°
Enters shadow 18:22:33 15° 129° (SE) 2,315 9.6 -18.2°
